Chihuahua, Mexico

4:11 AM MDT on April 26, 2017 (GMT -0600)
Gen Div P A Roberto Fierro

Weather History for MMCU - February, 2014

Change the Weather History Date:

Thursday, February 27, 2014

  Actual Average Record
Temperature  
Mean Temperature 64 °F -  
Max Temperature 81 °F 70 °F 91 °F (2009)
Min Temperature 46 °F 36 °F 26 °F (2002)
Degree Days  
Heating Degree Days 2    
Growing Degree Days 14 (Base 50)    
Moisture  
Dew Point 28 °F    
Average Humidity 28    
Maximum Humidity 75    
Minimum Humidity 12    
Precipitation  
Precipitation 0.00 in - - ()
Sea Level Pressure  
Sea Level Pressure 29.89 in    
Wind  
Wind Speed 4 mph ()    
Max Wind Speed 13 mph    
Max Gust Speed -    
Visibility 8.2 miles    
Events      
Averages and records for this station are not official NWS values.
T = Trace of Precipitation, MM = Missing Value Source: Averaged Metar Reports

Daily Weather History Graph

Daily Weather History Graph

Search for Another Location

Airport or City:

Trip Planner

Search our weather history database for the weather conditions in past years. The results will help you decide how hot, cold, wet, or windy it might be!

Date:

Astronomy

Feb. 27, 2014 Rise Set
Actual Time 6:30 AM MST 6:02 PM MST
Civil Twilight 6:07 AM MST 6:26 PM MST
Nautical Twilight 5:39 AM MST 6:53 PM MST
Astronomical Twilight 5:12 AM MST 7:21 PM MST
Moon 4:59 AM MST (2/27) 4:35 PM MST (2/27)
Length of Visible Light 12h 19m
Length of Day
11h 31m
Waning Crescent, 4% of the Moon is Illuminated
Feb 27
Waning Crescent
Mar 1
New
Mar 8
First Quarter
Mar 16
Full
Mar 23
Last Quarter

Hourly Weather History & Observations

Time (MST) Temp. Windchill Dew Point Humidity Pressure Visibility Wind Dir Wind Speed Gust Speed Precip Events Conditions
1:40 AM 56 °F - 42 °F 49% 29.78 in 1 mi West 4.5 mph - -  
4:45 AM 46 °F - 37 °F 63% 29.80 in 1 mi West 2.2 mph - -  
5:42 AM 41.0 °F 36.4 °F 32.0 °F 70% 30.08 in 10.0 mi SSW 6.9 mph - N/A   Clear
6:45 AM 37.4 °F 32.8 °F 30.2 °F 75% 30.09 in 10.0 mi SE 5.8 mph - N/A   Clear
7:40 AM 48.2 °F - 32.0 °F 54% 29.98 in 10.0 mi Calm Calm - N/A   Clear
7:50 AM 56 °F - 42 °F 49% 29.89 in 6 mi ENE 2.2 mph - -  
8:40 AM 57.2 °F - 32.0 °F 38% 30.12 in 10.0 mi Calm Calm - N/A   Clear
9:40 AM 64.4 °F - 32.0 °F 30% 30.12 in 10.0 mi South 3.5 mph - N/A   Clear
10:40 AM 69.8 °F - 30.2 °F 23% 29.91 in 10.0 mi Calm Calm - N/A   Clear
10:43 AM 72 °F - 38 °F 18% 29.85 in 6 mi SSE 4.5 mph - -  
11:42 AM 73.4 °F - 26.6 °F 18% 30.06 in 10.0 mi West 8.1 mph - N/A   Clear
12:40 PM 75.2 °F - 26.6 °F 17% 30.01 in 10.0 mi South 4.6 mph - N/A   Clear
1:45 PM 78 °F - 37 °F 14% 29.67 in 6 mi South 6.7 mph - -  
1:46 PM 77.0 °F - 24.8 °F 14% 29.79 in 10.0 mi Calm Calm - N/A   Clear
2:45 PM 77.0 °F - 24.8 °F 14% 29.93 in 10.0 mi NNW 5.8 mph - N/A   Partly Cloudy
3:42 PM 78.8 °F - 23.0 °F 13% 29.91 in 10.0 mi Calm Calm - N/A   Partly Cloudy
4:46 PM 78.8 °F - 21.2 °F 12% 29.73 in 10.0 mi WNW 10.4 mph - N/A   Partly Cloudy
5:44 PM 75.2 °F - 21.2 °F 13% 29.90 in 10.0 mi WSW 9.2 mph - N/A   Partly Cloudy
6:40 PM 69.8 °F - 19.4 °F 15% 29.92 in 10.0 mi West 10.4 mph - N/A   Clear
7:40 PM 72 °F - 30 °F 12% 29.53 in 1 mi NNW 6.7 mph - -  
7:43 PM 68.0 °F - 19.4 °F 16% 29.78 in 10.0 mi WNW 8.1 mph - N/A   Clear
8:40 PM 57.2 °F - 17.6 °F 21% 29.96 in 10.0 mi ESE 6.9 mph - N/A   Clear
9:40 PM 53.6 °F - 15.8 °F 22% 29.97 in 10.0 mi South 9.2 mph - N/A   Clear
10:40 PM 62 °F - 29 °F 18% 29.57 in 1 mi West 4.5 mph - -  
10:44 PM 53.6 °F - 17.6 °F 24% 29.78 in 10.0 mi SSW 8.1 mph - N/A   Clear
11:40 PM 53.6 °F - 19.4 °F 26% 29.97 in 10.0 mi SW 12.7 mph - N/A   Clear